This demonstration page uses our WeatherBlox Daily Observations layout. Learn more.

38.89511, -77.03637

Hourly Observations for June 5, 2015

Temp ( °F °C ) Dew Point ( °F °C ) Humidity (%) Winds ( mph kmh ) Pressure ( in mb ) Visibility ( mi km ) Precip ( " mm )
12:52 am 00:52 Cloudy 63 17 57 14 83 83 NE 7 11 30.15 1021 10 16.09344 0.001 0.001
1:52 am 01:52 Cloudy 61 16 57 14 88 88 ENE 12 19 30.12 1020 10 16.09344 0 0
2:52 am 02:52 Cloudy 61 16 57 14 88 88 NE 9 15 30.12 1020 9 14.484096 0.001 0.001
3:52 am 03:52 Cloudy with Light Rain 61 16 57 14 88 88 N 8 13 30.12 1020 4 6.437376 0.001 0.001
4:52 am 04:52 Cloudy with Light Rain 61 16 55 13 83 83 NNE 8 13 30.09 1019 9 14.484096 0.03 0.762
5:31 am 05:31 Cloudy with Light Rain 61 16 55 13 83 83 NNE 7 11 30.09 1019 8 12.874752 0.001 0.001
5:52 am 05:52 Cloudy 61 16 55 13 83 83 NNE 9 15 30.09 1019 10 16.09344 0.001 0.001
6:12 am 06:12 Cloudy with Light Rain 61 16 55 13 83 83 N 8 13 30.09 1019 6 9.656064 0 0
6:40 am 06:40 Cloudy 61 16 55 13 83 83 N 10 17 30.12 1020 10 16.09344 0 0
6:52 am 06:52 Cloudy with Mist and Fog 61 16 55 13 83 83 NNE 8 13 30.12 1020 6 9.656064 0.001 0.001
7:21 am 07:21 Cloudy 61 16 55 13 83 83 NNE 10 17 30.12 1020 10 16.09344 0.001 0.001
7:52 am 07:52 Cloudy 61 16 55 13 83 83 NNE 10 17 30.09 1019 10 16.09344 0.001 0.001
8:52 am 08:52 Cloudy 61 16 55 13 83 83 NNE 9 15 30.12 1020 10 16.09344 0.001 0.001
9:52 am 09:52 Cloudy 63 17 55 13 77 77 NNE 6 9 30.12 1020 10 16.09344 0 0
10:52 am 10:52 Cloudy 64 18 57 14 78 78 ENE 3 6 30.09 1019 10 16.09344 0 0
11:52 am 11:52 Cloudy 64 18 57 14 78 78 N 7 11 30.09 1019 10 16.09344 0 0
12:52 pm 12:52 Cloudy 66 19 59 15 78 78 NNE 3 6 30.06 1018 10 16.09344 0 0
1:32 pm 13:32 Cloudy 68 20 61 16 78 78 E 3 6 30.03 1017 10 16.09344 0 0
1:52 pm 13:52 Cloudy 70 21 61 16 73 73 Calm 30.03 1017 10 16.09344 0 0
2:52 pm 14:52 Cloudy 72 22 61 16 69 69 NE 3 6 30.03 1017 10 16.09344 0 0
3:22 pm 15:22 Mostly Cloudy 73 23 61 16 65 65 N 6 9 30 1016 10 16.09344 0 0
3:39 pm 15:39 Mostly Cloudy 73 23 61 16 65 65 Calm 30 1016 10 16.09344 0 0
3:52 pm 15:52 Mostly Cloudy 73 23 63 17 69 69 NNW 5 7 30 1016 10 16.09344 0 0
4:52 pm 16:52 Cloudy 73 23 61 16 65 65 Calm 30 1016 10 16.09344 0 0
5:52 pm 17:52 Cloudy 73 23 63 17 69 69 Calm 29.97 1015 10 16.09344 0 0
6:52 pm 18:52 Cloudy 73 23 63 17 69 69 Calm 29.94 1014 10 16.09344 0 0
7:52 pm 19:52 Cloudy 73 23 61 16 65 65 Calm 29.94 1014 10 16.09344 0 0
8:27 pm 20:27 Mostly Cloudy 72 22 61 16 69 69 SSE 3 6 29.94 1014 10 16.09344 0 0
8:52 pm 20:52 Mostly Cloudy 72 22 63 17 73 73 SSW 7 11 29.94 1014 10 16.09344 0 0
9:52 pm 21:52 Cloudy 70 21 63 17 78 78 WSW 3 6 29.94 1014 10 16.09344 0 0
10:11 pm 22:11 Cloudy 70 21 63 17 78 78 SW 5 7 29.94 1014 10 16.09344 0 0
10:52 pm 22:52 Cloudy 70 21 63 17 78 78 W 3 6 29.94 1014 10 16.09344 0 0
11:52 pm 23:52 Mostly Cloudy 70 21 63 17 78 78 Calm 29.94 1014 10 16.09344 0 0

Powered by AerisWeather